User: anonymous   Login
Location: Unspecified
(0.0000°N, 0.0000°E)
Time: 03:21:34
(UTC+00:00)
Language:

STARLINK-1663 - Orbit

View from above orbital plane
View from above orbital plane
View from above satellite
View from above satellite

Ground track
Ground track

The orbit is defined by the following mean orbital elements,

1 46535U          26145.58335647 +.00000000 +00000-0 +38943-3 0 00005
2 46535  53.0331 113.1297 0007228  63.4047  14.0118 15.82634918    09
Epoch (UTC): 25 May 2026 14:00:01
Eccentricity: 0.0007228
inclination: 53.0331°
perigee height: 318 km
apogee height: 328 km
right ascension of ascending node: 113.1297°
argument of perigee: 63.4047°
revolutions per day: 15.82634918
mean anomaly at epoch: 14.0118°

The dashed part of the orbit path shows where the satellite is in the earth's shadow,  

DLR